Hazen, ND

6:48 PM CDT on August 26, 2016 (GMT -0500)
Mercer County Regional

Weather History for KHZE - March, 2014

Change the Weather History Date:

Thursday, March 20, 2014

  Actual Average (KN60) Record (KN60)
Temperature  
Mean Temperature 39 °F -  
Max Temperature 55 °F - 66 °F (2007)
Min Temperature 23 °F - -8 °F (2013)
Degree Days  
Heating Degree Days 26    
Cooling Degree Days 0    
Moisture  
Dew Point 26 °F    
Average Humidity 67    
Maximum Humidity 93    
Minimum Humidity 29    
Precipitation  
Precipitation 0.00 in - 0.06 in (2014)
Month to date precipitation  
Year to date precipitation  
Sea Level Pressure  
Sea Level Pressure 29.76 in    
Wind  
Wind Speed 5 mph (SW)    
Max Wind Speed 24 mph    
Max Gust Speed 30 mph    
Visibility 10 miles    
Events      
T = Trace of Precipitation, MM = Missing Value Source: NWS Daily Summary

Daily Weather History Graph

Daily Weather History Graph

Search for Another Location

Airport or City:

Trip Planner

Search our weather history database for the weather conditions in past years. The results will help you decide how hot, cold, wet, or windy it might be!

Date:

Astronomy

Mar. 20, 2014 Rise Set
Actual Time 7:49 AM CDT 7:59 PM CDT
Civil Twilight 7:18 AM CDT 8:29 PM CDT
Nautical Twilight 6:42 AM CDT 9:05 PM CDT
Astronomical Twilight 6:05 AM CDT 9:42 PM CDT
Moon No Moon Rise 9:41 AM CDT (3/20)
Length of Visible Light 13h 11m
Length of Day
12h 09m
Waning Gibbous, 84% of the Moon is Illuminated
Mar 20
Waning Gibbous
Mar 23
Last Quarter
Mar 30
New
Apr 7
First Quarter
Apr 15
Full

Hourly Weather History & Observations

Time (CDT) Temp. Windchill Dew Point Humidity Pressure Visibility Wind Dir Wind Speed Gust Speed Precip Events Conditions
12:15 AM 23.0 °F - 19.4 °F 86% 29.91 in 10.0 mi Calm Calm - N/A   Scattered Clouds
12:35 AM 24.8 °F - 21.2 °F 86% 29.91 in 10.0 mi Calm Calm - N/A   Mostly Cloudy
12:55 AM 24.8 °F - 23.0 °F 93% 29.90 in 10.0 mi Calm Calm - N/A   Overcast
1:15 AM 24.8 °F - 23.0 °F 93% 29.90 in 10.0 mi Calm Calm - N/A   Overcast
1:35 AM 26.6 °F - 23.0 °F 86% 29.90 in 10.0 mi Calm Calm - N/A   Overcast
1:55 AM 26.6 °F - 23.0 °F 86% 29.89 in 10.0 mi Calm Calm - N/A   Overcast
2:15 AM 26.6 °F - 24.8 °F 93% 29.89 in 10.0 mi Calm Calm - N/A   Overcast
2:35 AM 26.6 °F - 24.8 °F 93% 29.90 in 10.0 mi Calm Calm - N/A   Overcast
2:55 AM 26.6 °F 22.6 °F 24.8 °F 93% 29.90 in 10.0 mi NNE 3.5 mph - N/A   Overcast
3:15 AM 26.6 °F 22.6 °F 24.8 °F 93% 29.89 in 10.0 mi ENE 3.5 mph - N/A   Overcast
3:35 AM 28.4 °F 23.3 °F 24.8 °F 86% 29.88 in 10.0 mi NE 4.6 mph - N/A   Overcast
3:55 AM 28.4 °F 24.6 °F 24.8 °F 86% 29.87 in 10.0 mi ENE 3.5 mph - N/A   Overcast
4:15 AM 26.6 °F 19.1 °F 24.8 °F 93% 29.86 in 10.0 mi ENE 6.9 mph - N/A   Overcast
4:35 AM 26.6 °F 19.1 °F 24.8 °F 93% 29.86 in 10.0 mi ENE 6.9 mph - N/A   Overcast
4:55 AM 26.6 °F 19.1 °F 24.8 °F 93% 29.85 in 10.0 mi NE 6.9 mph - N/A   Overcast
5:15 AM 26.6 °F 20.0 °F 24.8 °F 93% 29.84 in 10.0 mi ENE 5.8 mph - N/A   Overcast
5:35 AM 28.4 °F - 24.8 °F 86% 29.84 in 10.0 mi Calm Calm - N/A   Overcast
5:55 AM 32.0 °F 27.5 °F 24.8 °F 75% 29.83 in 10.0 mi East 4.6 mph - N/A   Overcast
6:15 AM 32.0 °F 28.7 °F 24.8 °F 75% 29.82 in 10.0 mi East 3.5 mph - N/A   Overcast
6:35 AM 32.0 °F 28.7 °F 24.8 °F 75% 29.82 in 10.0 mi East 3.5 mph - N/A   Overcast
6:55 AM 32.0 °F 26.4 °F 24.8 °F 75% 29.81 in 10.0 mi SE 5.8 mph - N/A   Overcast
7:15 AM 32.0 °F - 23.0 °F 69% 29.81 in 10.0 mi Calm Calm - N/A   Overcast
7:35 AM 32.0 °F 27.5 °F 23.0 °F 69% 29.80 in 10.0 mi ESE 4.6 mph - N/A   Overcast
7:55 AM 32.0 °F - 23.0 °F 69% 29.80 in 10.0 mi Calm Calm - N/A   Overcast
8:15 AM 30.2 °F 25.4 °F 23.0 °F 75% 29.80 in 10.0 mi SW 4.6 mph - N/A   Overcast
8:35 AM 30.2 °F 25.4 °F 23.0 °F 75% 29.79 in 10.0 mi South 4.6 mph - N/A   Scattered Clouds
8:55 AM 30.2 °F 26.7 °F 24.8 °F 80% 29.78 in 10.0 mi North 3.5 mph - N/A   Clear
9:15 AM 32.0 °F 28.7 °F 24.8 °F 75% 29.77 in 10.0 mi ENE 3.5 mph - N/A   Clear
9:35 AM 35.6 °F - 24.8 °F 65% 29.77 in 10.0 mi Calm Calm - N/A   Clear
9:55 AM 37.4 °F 34.9 °F 26.6 °F 65% 29.77 in 10.0 mi SW 3.5 mph - N/A   Clear
10:15 AM 37.4 °F 34.9 °F 26.6 °F 65% 29.76 in 10.0 mi West 3.5 mph - N/A   Clear
10:35 AM 41.0 °F 35.2 °F 24.8 °F 53% 29.76 in 10.0 mi SW 9.2 mph - N/A   Clear
10:55 AM 42.8 °F 39.3 °F 24.8 °F 49% 29.75 in 10.0 mi SW 5.8 mph - N/A   Clear
11:15 AM 44.6 °F 40.2 °F 24.8 °F 46% 29.74 in 10.0 mi SW 8.1 mph - N/A   Clear
11:35 AM 46.4 °F 41.9 °F 24.8 °F 43% 29.73 in 10.0 mi SSW 9.2 mph - N/A   Clear
11:55 AM 46.4 °F 42.4 °F 24.8 °F 43% 29.73 in 10.0 mi South 8.1 mph - N/A   Clear
12:15 PM 48.2 °F - 24.8 °F 40% 29.72 in 10.0 mi SW 9.2 mph - N/A   Clear
12:35 PM 50.0 °F - 24.8 °F 37% 29.71 in 10.0 mi South 5.8 mph - N/A   Clear
12:55 PM 50.0 °F - 23.0 °F 35% 29.70 in 10.0 mi South 6.9 mph - N/A   Clear
1:15 PM 51.8 °F - 23.0 °F 33% 29.69 in 10.0 mi SW 8.1 mph - N/A   Clear
1:35 PM 50.0 °F - 23.0 °F 35% 29.69 in 10.0 mi SW 5.8 mph - N/A   Clear
1:55 PM 53.6 °F - 23.0 °F 30% 29.68 in 10.0 mi SSW 8.1 mph - N/A   Clear
2:15 PM 53.6 °F - 23.0 °F 30% 29.67 in 10.0 mi WSW 9.2 mph - N/A   Clear
2:35 PM 53.6 °F - 23.0 °F 30% 29.66 in 10.0 mi SW 8.1 mph - N/A   Clear
2:55 PM 55.4 °F - 23.0 °F 29% 29.65 in 10.0 mi WSW 19.6 mph 23.0 mph N/A   Clear
3:15 PM 53.6 °F - 24.8 °F 33% 29.65 in 10.0 mi WNW 16.1 mph 29.9 mph N/A   Scattered Clouds
3:35 PM 53.6 °F - 24.8 °F 33% 29.64 in 10.0 mi WNW 18.4 mph 23.0 mph N/A   Scattered Clouds
3:55 PM 53.6 °F - 26.6 °F 35% 29.64 in 10.0 mi WSW 19.6 mph 28.8 mph N/A   Scattered Clouds
4:15 PM 55.4 °F - 26.6 °F 33% 29.64 in 10.0 mi WSW 23.0 mph 26.5 mph N/A   Partly Cloudy
4:35 PM 53.6 °F - 26.6 °F 35% 29.64 in 10.0 mi WSW 18.4 mph 29.9 mph N/A   Partly Cloudy
4:55 PM 51.8 °F - 26.6 °F 38% 29.64 in 10.0 mi WSW 24.2 mph 27.6 mph N/A   Clear
5:15 PM 51.8 °F - 26.6 °F 38% 29.64 in 10.0 mi West 19.6 mph - N/A   Scattered Clouds
5:35 PM 46.4 °F 41.5 °F 32.0 °F 57% 29.66 in 9.0 mi NNW 10.4 mph 17.3 mph N/A   Mostly Cloudy
5:55 PM 44.6 °F 36.4 °F 32.0 °F 61% 29.67 in 10.0 mi North 20.7 mph 25.3 mph N/A   Mostly Cloudy
6:15 PM 42.8 °F 36.6 °F 35.6 °F 76% 29.68 in 10.0 mi North 11.5 mph - N/A   Scattered Clouds
6:35 PM 42.8 °F 38.6 °F 35.6 °F 76% 29.68 in 10.0 mi NNE 6.9 mph - N/A   Partly Cloudy
6:55 PM 44.6 °F 42.2 °F 35.6 °F 71% 29.68 in 10.0 mi NW 4.6 mph - N/A   Scattered Clouds
7:15 PM 44.6 °F 41.4 °F 32.0 °F 61% 29.67 in 10.0 mi WSW 5.8 mph - N/A   Partly Cloudy
7:35 PM 44.6 °F 42.2 °F 32.0 °F 61% 29.67 in 10.0 mi SSW 4.6 mph - N/A   Partly Cloudy
7:55 PM 39.2 °F 34.2 °F 32.0 °F 75% 29.67 in 10.0 mi SSW 6.9 mph - N/A   Clear
8:15 PM 37.4 °F 31.4 °F 32.0 °F 81% 29.68 in 10.0 mi SW 8.1 mph - N/A   Clear
8:35 PM 39.2 °F 31.6 °F 32.0 °F 75% 29.70 in 10.0 mi West 12.7 mph 18.4 mph N/A   Partly Cloudy
8:55 PM 39.2 °F 32.0 °F 30.2 °F 70% 29.70 in 10.0 mi WNW 11.5 mph - N/A   Mostly Cloudy
9:15 PM 37.4 °F - 32.0 °F 81% 29.71 in 10.0 mi Calm Calm - N/A   Mostly Cloudy
9:35 PM 33.8 °F - 30.2 °F 87% 29.73 in 10.0 mi Calm Calm - N/A   Partly Cloudy
9:55 PM 32.0 °F - 28.4 °F 87% 29.73 in 10.0 mi Calm Calm - N/A   Clear
10:15 PM 28.4 °F 24.6 °F 26.6 °F 93% 29.73 in 10.0 mi SSW 3.5 mph - N/A   Clear
10:35 PM 26.6 °F 21.2 °F 24.8 °F 93% 29.72 in 10.0 mi South 4.6 mph - N/A   Partly Cloudy
10:55 PM 28.4 °F - 24.8 °F 86% 29.73 in 10.0 mi Calm Calm - N/A   Mostly Cloudy
11:15 PM 32.0 °F 24.8 °F 26.6 °F 80% 29.74 in 10.0 mi SW 8.1 mph - N/A   Overcast
11:35 PM 32.0 °F 25.6 °F 26.6 °F 80% 29.74 in 10.0 mi SW 6.9 mph - N/A   Overcast
11:55 PM 33.8 °F 27.7 °F 28.4 °F 81% 29.74 in 10.0 mi West 6.9 mph - N/A   Mostly Cloudy